| time (UTC) | temp F | wind direction | speed knots | gust knots | rain 1hr in | rain 24hr in | rain mn in | humidity % | barometer mb |
| 20260507210055 | 80 | 207 | 0.0 | 0.9 | 0.00 | 0.00 | 0.00 | 77 | 1018.0 |
| 20260507205552 | 80 | 235 | 0.9 | 3.5 | 0.00 | 0.00 | 0.00 | 76 | 1018.1 |
| 20260507205048 | 81 | 210 | 2.6 | 3.5 | 0.00 | 0.00 | 0.00 | 78 | 1018.3 |
| 20260507204544 | 81 | 243 | 0.0 | 0.9 | 0.00 | 0.00 | 0.00 | 77 | 1017.8 |
| 20260507204042 | 82 | 335 | 0.0 | 2.6 | 0.00 | 0.00 | 0.00 | 75 | 1017.9 |
| 20260507203540 | 82 | 280 | 0.0 | 0.0 | 0.00 | 0.00 | 0.00 | 74 | 1017.9 |
| 20260507203037 | 82 | 203 | 0.0 | 0.9 | 0.00 | 0.00 | 0.00 | 74 | 1017.9 |
| 20260507202533 | 82 | 10 | 0.0 | 5.2 | 0.00 | 0.00 | 0.00 | 74 | 1017.8 |
| 20260507202029 | 82 | 239 | 0.9 | 2.6 | 0.00 | 0.00 | 0.00 | 73 | 1018.0 |
| 20260507201525 | 82 | 207 | 0.9 | 1.7 | 0.00 | 0.00 | 0.00 | 71 | 1018.0 |
| 20260507201021 | 82 | 293 | 3.5 | 3.5 | 0.00 | 0.00 | 0.00 | 71 | 1018.2 |
| 20260507200517 | 82 | 265 | 3.5 | 3.5 | 0.00 | 0.00 | 0.00 | 71 | 1018.2 |
| 20260507200013 | 82 | 214 | 1.7 | 2.6 | 0.00 | 0.00 | 0.00 | 70 | 1018.1 |
| 20260507195510 | 82 | 238 | 1.7 | 2.6 | 0.00 | 0.00 | 0.00 | 73 | 1018.1 |
| 20260507195008 | 82 | 235 | 1.7 | 3.5 | 0.00 | 0.00 | 0.00 | 74 | 1018.2 |
| 20260507194504 | 82 | 329 | 1.7 | 3.5 | 0.00 | 0.00 | 0.00 | 74 | 1018.3 |
| 20260507194000 | 82 | 287 | 2.6 | 2.6 | 0.00 | 0.00 | 0.00 | 74 | 1018.4 |
| 20260507193458 | 82 | 189 | 0.9 | 7.0 | 0.00 | 0.00 | 0.00 | 73 | 1018.4 |
| 20260507192954 | 82 | 232 | 0.9 | 2.6 | 0.00 | 0.00 | 0.00 | 72 | 1018.4 |
| 20260507192450 | 83 | 215 | 0.9 | 5.2 | 0.00 | 0.00 | 0.00 | 71 | 1018.2 |
| 20260507191947 | 83 | 235 | 0.9 | 0.9 | 0.00 | 0.00 | 0.00 | 72 | 1018.3 |
| 20260507191443 | 83 | 248 | 4.3 | 5.2 | 0.00 | 0.00 | 0.00 | 70 | 1018.2 |
| 20260507190940 | 84 | 6 | 1.7 | 5.2 | 0.00 | 0.00 | 0.00 | 70 | 1018.4 |
| 20260507190438 | 83 | 299 | 3.5 | 6.1 | 0.00 | 0.00 | 0.00 | 70 | 1018.2 |
| 20260507185936 | 85 | 259 | 4.3 | 6.1 | 0.00 | 0.00 | 0.00 | 71 | 1018.2 |
| 20260507185433 | 84 | 44 | 3.5 | 5.2 | 0.00 | 0.00 | 0.00 | 69 | 1018.3 |
| 20260507184930 | 85 | 187 | 3.5 | 6.1 | 0.00 | 0.00 | 0.00 | 70 | 1018.3 |
| 20260507184428 | 85 | 242 | 0.0 | 3.5 | 0.00 | 0.00 | 0.00 | 69 | 1018.2 |
| 20260507183926 | 85 | 344 | 0.9 | 3.5 | 0.00 | 0.00 | 0.00 | 70 | 1018.2 |
| 20260507183422 | 85 | 264 | 0.9 | 1.7 | 0.00 | 0.00 | 0.00 | 70 | 1018.4 |
| 20260507182919 | 86 | 256 | 0.0 | 3.5 | 0.00 | 0.00 | 0.00 | 68 | 1018.6 |
| 20260507182415 | 85 | 279 | 0.0 | 1.7 | 0.00 | 0.00 | 0.00 | 71 | 1018.7 |
| 20260507181911 | 86 | 259 | 1.7 | 2.6 | 0.00 | 0.00 | 0.00 | 68 | 1018.8 |
| 20260507181408 | 85 | 82 | 0.9 | 7.0 | 0.00 | 0.00 | 0.00 | 69 | 1018.6 |
| 20260507180904 | 85 | 211 | 0.0 | 2.6 | 0.00 | 0.00 | 0.00 | 69 | 1018.6 |
| 20260507180401 | 85 | 296 | 1.7 | 3.5 | 0.00 | 0.00 | 0.00 | 70 | 1018.6 |
| 20260507175857 | 85 | 294 | 0.9 | 1.7 | 0.00 | 0.00 | 0.00 | 70 | 1018.7 |
| 20260507175354 | 84 | 205 | 0.9 | 1.7 | 0.00 | 0.00 | 0.00 | 71 | 1018.9 |
| 20260507174852 | 85 | 25 | 0.9 | 1.7 | 0.00 | 0.00 | 0.00 | 71 | 1019.0 |
| 20260507174349 | 85 | 359 | 1.7 | 1.7 | 0.00 | 0.00 | 0.00 | 72 | 1018.9 |
| 20260507173847 | 85 | 272 | 0.0 | 6.1 | 0.00 | 0.00 | 0.00 | 71 | 1019.2 |
| 20260507173343 | 86 | 32 | 0.9 | 1.7 | 0.00 | 0.00 | 0.00 | 71 | 1018.9 |
| 20260507172839 | 85 | 207 | 0.9 | 3.5 | 0.00 | 0.00 | 0.00 | 70 | 1019.0 |
| 20260507172336 | 85 | 49 | 0.0 | 3.5 | 0.00 | 0.00 | 0.00 | 71 | 1019.2 |
| 20260507171832 | 85 | 35 | 0.9 | 3.5 | 0.00 | 0.00 | 0.00 | 70 | 1019.1 |
| 20260507171329 | 85 | 237 | 3.5 | 3.5 | 0.00 | 0.00 | 0.00 | 71 | 1019.3 |
| 20260507170826 | 85 | 252 | 1.7 | 1.7 | 0.00 | 0.00 | 0.00 | 70 | 1019.3 |
| 20260507170323 | 86 | 31 | 2.6 | 6.1 | 0.00 | 0.00 | 0.00 | 71 | 1019.3 |
| 20260507165819 | 86 | 17 | 1.7 | 5.2 | 0.00 | 0.00 | 0.00 | 70 | 1019.4 |
| 20260507165315 | 84 | 192 | 0.0 | 3.5 | 0.00 | 0.00 | 0.00 | 72 | 1019.7 |
| 20260507164811 | 86 | 23 | 0.0 | 1.7 | 0.00 | 0.00 | 0.00 | 72 | 1019.8 |
| 20260507164308 | 87 | 191 | 1.7 | 2.6 | 0.00 | 0.00 | 0.00 | 69 | 1019.7 |
| 20260507163805 | 86 | 320 | 1.7 | 3.5 | 0.00 | 0.00 | 0.00 | 71 | 1019.7 |
| 20260507163303 | 86 | 5 | 1.7 | 2.6 | 0.00 | 0.00 | 0.00 | 71 | 1019.6 |
| 20260507162758 | 86 | 329 | 0.0 | 2.6 | 0.00 | 0.00 | 0.00 | 69 | 1020.0 |
| 20260507162255 | 86 | 9 | 0.0 | 2.6 | 0.00 | 0.00 | 0.00 | 71 | 1020.1 |
| 20260507161752 | 85 | 29 | 0.9 | 5.2 | 0.00 | 0.00 | 0.00 | 72 | 1020.2 |
| 20260507161248 | 86 | 138 | 0.9 | 3.5 | 0.00 | 0.00 | 0.00 | 71 | 1020.0 |
| 20260507160744 | 86 | 65 | 1.7 | 8.7 | 0.00 | 0.00 | 0.00 | 71 | 1020.2 |
| 20260507160241 | 86 | 55 | 0.9 | 6.1 | 0.00 | 0.00 | 0.00 | 72 | 1020.0 |
| 20260507155737 | 86 | 206 | 3.5 | 5.2 | 0.00 | 0.00 | 0.00 | 71 | 1019.9 |
| 20260507155233 | 86 | 336 | 0.9 | 6.1 | 0.00 | 0.00 | 0.00 | 71 | 1020.0 |
| 20260507154730 | 85 | 51 | 2.6 | 3.5 | 0.00 | 0.00 | 0.00 | 71 | 1020.0 |
| 20260507154227 | 85 | 0 | 1.7 | 2.6 | 0.00 | 0.00 | 0.00 | 72 | 1020.1 |
| 20260507153723 | 85 | 264 | 0.0 | 2.6 | 0.00 | 0.00 | 0.00 | 70 | 1020.2 |
| 20260507153220 | 84 | 267 | 0.0 | 1.7 | 0.00 | 0.00 | 0.00 | 71 | 1020.2 |
| 20260507152717 | 85 | 29 | 1.7 | 2.6 | 0.00 | 0.00 | 0.00 | 71 | 1020.2 |
| 20260507152213 | 85 | 260 | 0.9 | 0.9 | 0.00 | 0.00 | 0.00 | 70 | 1020.2 |
| 20260507151709 | 85 | 183 | 0.0 | 0.0 | 0.00 | 0.00 | 0.00 | 69 | 1020.2 |
| 20260507151206 | 85 | 187 | 0.0 | 0.0 | 0.00 | 0.00 | 0.00 | 67 | 1020.2 |
| 20260507150703 | 85 | 257 | 0.0 | 1.7 | 0.00 | 0.00 | 0.00 | 65 | 1020.3 |
| 20260507150159 | 85 | 212 | 2.6 | 5.2 | 0.00 | 0.00 | 0.00 | 65 | 1020.3 |
| 20260507145655 | 85 | 221 | 0.0 | 1.7 | 0.00 | 0.00 | 0.00 | 65 | 1020.3 |
| 20260507145152 | 87 | 194 | 2.6 | 2.6 | 0.00 | 0.00 | 0.00 | 63 | 1020.3 |
| 20260507144649 | 87 | 241 | 0.0 | 1.7 | 0.00 | 0.00 | 0.00 | 63 | 1020.2 |
| 20260507144147 | 85 | 198 | 0.9 | 0.9 | 0.00 | 0.00 | 0.00 | 65 | 1020.3 |
| 20260507143643 | 86 | 201 | 0.9 | 3.5 | 0.00 | 0.00 | 0.00 | 64 | 1020.4 |
| 20260507143140 | 87 | 269 | 1.7 | 6.1 | 0.00 | 0.00 | 0.00 | 63 | 1020.5 |
| 20260507142636 | 85 | 292 | 0.0 | 2.6 | 0.00 | 0.00 | 0.00 | 65 | 1020.4 |
| 20260507142133 | 86 | 218 | 2.6 | 2.6 | 0.00 | 0.00 | 0.00 | 63 | 1020.4 |
| 20260507141629 | 84 | 187 | 0.0 | 3.5 | 0.00 | 0.00 | 0.00 | 68 | 1020.5 |
| 20260507141126 | 86 | 230 | 5.2 | 6.1 | 0.00 | 0.00 | 0.00 | 64 | 1020.4 |
| 20260507140622 | 85 | 185 | 1.7 | 1.7 | 0.00 | 0.00 | 0.00 | 65 | 1020.5 |
| 20260507140120 | 85 | 148 | 0.9 | 1.7 | 0.00 | 0.00 | 0.00 | 65 | 1020.4 |
| 20260507135617 | 84 | 206 | 1.7 | 2.6 | 0.00 | 0.00 | 0.00 | 66 | 1020.4 |
| 20260507135115 | 84 | 99 | 0.0 | 0.0 | 0.00 | 0.00 | 0.00 | 67 | 1020.6 |
| 20260507134610 | 83 | 274 | 0.9 | 1.7 | 0.00 | 0.00 | 0.00 | 68 | 1020.5 |
| 20260507134107 | 83 | 202 | 1.7 | 3.5 | 0.00 | 0.00 | 0.00 | 67 | 1020.5 |
| 20260507133603 | 83 | 75 | 0.9 | 0.9 | 0.00 | 0.00 | 0.00 | 69 | 1020.6 |
| 20260507133101 | 83 | 36 | 0.9 | 1.7 | 0.00 | 0.00 | 0.00 | 67 | 1020.3 |
| 20260507132557 | 83 | 247 | 0.9 | 1.7 | 0.00 | 0.00 | 0.00 | 65 | 1020.5 |
| 20260507132054 | 83 | 55 | 0.9 | 2.6 | 0.00 | 0.00 | 0.00 | 67 | 1020.5 |
| 20260507131550 | 82 | 190 | 0.9 | 1.7 | 0.00 | 0.00 | 0.00 | 71 | 1020.3 |
| 20260507131048 | 82 | 223 | 2.6 | 2.6 | 0.00 | 0.00 | 0.00 | 68 | 1020.3 |
| 20260507130544 | 81 | 212 | 0.9 | 0.9 | 0.00 | 0.00 | 0.00 | 70 | 1020.6 |
| 20260507130043 | 80 | 177 | 0.0 | 0.0 | 0.00 | 0.00 | 0.00 | 72 | 1020.5 |
| 20260507125541 | 79 | 313 | 1.7 | 1.7 | 0.00 | 0.00 | 0.00 | 75 | 1020.5 |
| 20260507125038 | 78 | 185 | 1.7 | 1.7 | 0.00 | 0.00 | 0.00 | 76 | 1020.5 |
| 20260507124534 | 78 | 191 | 0.0 | 0.0 | 0.00 | 0.00 | 0.00 | 76 | 1020.3 |
| 20260507124032 | 75 | 240 | 0.0 | 2.6 | 0.00 | 0.00 | 0.00 | 79 | 1020.2 |
| 20260507123530 | 74 | 121 | 0.0 | 0.0 | 0.00 | 0.00 | 0.00 | 88 | 1020.3 |
| 20260507123027 | 74 | 131 | 0.0 | 0.0 | 0.00 | 0.00 | 0.00 | 90 | 1020.1 |
| 20260507122522 | 73 | 135 | 0.0 | 0.0 | 0.00 | 0.00 | 0.00 | 91 | 1019.9 |
| 20260507122018 | 73 | 128 | 0.0 | 0.0 | 0.00 | 0.00 | 0.00 | 92 | 1019.9 |
| 20260507121514 | 73 | 121 | 0.0 | 0.0 | 0.00 | 0.00 | 0.00 | 93 | 1020.0 |
| 20260507121010 | 72 | 121 | 0.0 | 0.0 | 0.00 | 0.00 | 0.00 | 94 | 1019.9 |
| 20260507120506 | 72 | 121 | 0.0 | 0.0 | 0.00 | 0.00 | 0.00 | 94 | 1019.8 |
| 20260507120003 | 71 | 121 | 0.0 | 0.0 | 0.00 | 0.00 | 0.00 | 95 | 1019.8 |
| 20260507115459 | 71 | 121 | 0.0 | 0.0 | 0.00 | 0.00 | 0.00 | 95 | 1019.6 |
| 20260507114955 | 71 | 121 | 0.0 | 0.0 | 0.00 | 0.00 | 0.00 | 95 | 1019.8 |
| 20260507114451 | 70 | 136 | 0.0 | 0.0 | 0.00 | 0.00 | 0.00 | 95 | 1019.5 |
| 20260507113949 | 70 | 140 | 0.0 | 0.0 | 0.00 | 0.00 | 0.00 | 95 | 1019.4 |
| 20260507113446 | 70 | 165 | 0.0 | 0.0 | 0.00 | 0.00 | 0.00 | 95 | 1019.4 |
| 20260507112943 | 69 | 116 | 0.0 | 0.0 | 0.00 | 0.00 | 0.00 | 95 | 1019.5 |
| 20260507112441 | 69 | 116 | 0.0 | 0.0 | 0.00 | 0.00 | 0.00 | 95 | 1019.4 |
| 20260507111937 | 69 | 116 | 0.0 | 0.0 | 0.00 | 0.00 | 0.00 | 95 | 1019.4 |
| 20260507111435 | 69 | 116 | 0.0 | 0.0 | 0.00 | 0.00 | 0.00 | 95 | 1019.3 |
| 20260507110931 | 69 | 111 | 0.0 | 0.0 | 0.00 | 0.00 | 0.00 | 95 | 1019.4 |
| 20260507110427 | 68 | 145 | 0.0 | 0.0 | 0.00 | 0.00 | 0.00 | 95 | 1019.5 |
| 20260507105924 | 68 | 145 | 0.0 | 0.0 | 0.00 | 0.00 | 0.00 | 94 | 1019.4 |
| 20260507105421 | 68 | 145 | 0.0 | 0.0 | 0.00 | 0.00 | 0.00 | 94 | 1019.2 |
| 20260507104917 | 68 | 145 | 0.0 | 0.0 | 0.00 | 0.00 | 0.00 | 94 | 1019.3 |
| 20260507104414 | 68 | 145 | 0.0 | 0.0 | 0.00 | 0.00 | 0.00 | 94 | 1019.5 |
| 20260507103910 | 68 | 145 | 0.0 | 0.0 | 0.00 | 0.00 | 0.00 | 94 | 1019.3 |
| 20260507103407 | 68 | 145 | 0.0 | 0.0 | 0.00 | 0.00 | 0.00 | 94 | 1019.4 |
| 20260507102903 | 68 | 145 | 0.0 | 0.0 | 0.00 | 0.00 | 0.00 | 94 | 1019.2 |
| 20260507102400 | 68 | 145 | 0.0 | 0.0 | 0.00 | 0.00 | 0.00 | 94 | 1019.2 |
| 20260507101857 | 68 | 145 | 0.0 | 0.0 | 0.00 | 0.00 | 0.00 | 94 | 1019.1 |
| 20260507101356 | 68 | 145 | 0.0 | 0.0 | 0.00 | 0.00 | 0.00 | 94 | 1019.4 |
| 20260507100854 | 68 | 145 | 0.0 | 0.0 | 0.00 | 0.00 | 0.00 | 94 | 1019.2 |
| 20260507100351 | 68 | 159 | 0.0 | 0.0 | 0.00 | 0.00 | 0.00 | 94 | 1018.9 |
| 20260507095849 | 68 | 165 | 0.0 | 0.0 | 0.00 | 0.00 | 0.00 | 94 | 1019.0 |
| 20260507095345 | 68 | 184 | 0.0 | 0.0 | 0.00 | 0.00 | 0.00 | 94 | 1019.0 |
| 20260507094843 | 68 | 136 | 0.0 | 0.0 | 0.00 | 0.00 | 0.00 | 94 | 1019.0 |
| 20260507094339 | 68 | 136 | 0.0 | 0.0 | 0.00 | 0.00 | 0.00 | 94 | 1019.0 |
| 20260507093836 | 68 | 134 | 0.0 | 0.0 | 0.00 | 0.00 | 0.00 | 94 | 1018.8 |
| 20260507093335 | 68 | 145 | 0.0 | 0.0 | 0.00 | 0.00 | 0.00 | 94 | 1018.6 |
| 20260507092832 | 68 | 144 | 0.0 | 0.0 | 0.00 | 0.00 | 0.00 | 94 | 1018.8 |
| 20260507092328 | 68 | 147 | 0.0 | 0.0 | 0.00 | 0.00 | 0.00 | 94 | 1018.9 |
| 20260507091825 | 68 | 146 | 0.0 | 0.0 | 0.00 | 0.00 | 0.00 | 94 | 1018.7 |
| 20260507091322 | 69 | 165 | 0.0 | 0.0 | 0.00 | 0.00 | 0.00 | 94 | 1018.7 |
| 20260507090817 | 69 | 143 | 0.0 | 0.0 | 0.00 | 0.00 | 0.00 | 94 | 1018.9 |
| 20260507090314 | 69 | 143 | 0.0 | 0.0 | 0.00 | 0.00 | 0.00 | 94 | 1018.8 |
| 20260507085811 | 69 | 142 | 0.0 | 0.0 | 0.00 | 0.00 | 0.00 | 94 | 1018.8 |
| 20260507085307 | 69 | 150 | 0.0 | 0.0 | 0.00 | 0.00 | 0.00 | 94 | 1019.0 |
| 20260507084805 | 69 | 149 | 0.0 | 0.0 | 0.00 | 0.00 | 0.00 | 94 | 1019.0 |
| 20260507084301 | 69 | 193 | 0.0 | 0.0 | 0.00 | 0.00 | 0.00 | 94 | 1018.9 |
| 20260507083759 | 69 | 219 | 0.0 | 0.0 | 0.00 | 0.00 | 0.00 | 94 | 1019.2 |
| 20260507083255 | 69 | 150 | 0.0 | 0.0 | 0.00 | 0.00 | 0.00 | 94 | 1019.2 |
| 20260507082751 | 69 | 143 | 0.0 | 0.0 | 0.00 | 0.00 | 0.00 | 94 | 1019.0 |
| 20260507082247 | 69 | 133 | 0.0 | 0.0 | 0.00 | 0.00 | 0.00 | 94 | 1019.1 |
| 20260507081744 | 69 | 141 | 0.0 | 0.0 | 0.00 | 0.00 | 0.00 | 94 | 1019.0 |
| 20260507081240 | 69 | 138 | 0.0 | 0.0 | 0.00 | 0.00 | 0.00 | 94 | 1018.9 |
| 20260507080737 | 69 | 137 | 0.0 | 0.0 | 0.00 | 0.00 | 0.00 | 94 | 1019.0 |
| 20260507080233 | 69 | 137 | 0.0 | 0.0 | 0.00 | 0.00 | 0.00 | 94 | 1018.9 |
| 20260507075728 | 70 | 140 | 0.0 | 0.0 | 0.00 | 0.00 | 0.00 | 93 | 1018.9 |
| 20260507075225 | 70 | 155 | 0.0 | 0.0 | 0.00 | 0.00 | 0.00 | 93 | 1019.1 |
| 20260507074722 | 70 | 155 | 0.0 | 0.0 | 0.00 | 0.00 | 0.00 | 93 | 1018.9 |
| 20260507074220 | 70 | 155 | 0.0 | 0.0 | 0.00 | 0.00 | 0.00 | 93 | 1018.8 |
| 20260507073716 | 70 | 155 | 0.0 | 0.0 | 0.00 | 0.00 | 0.00 | 93 | 1019.0 |
| 20260507073212 | 70 | 168 | 0.0 | 0.0 | 0.00 | 0.00 | 0.00 | 93 | 1018.8 |
| 20260507072710 | 70 | 182 | 0.0 | 0.0 | 0.00 | 0.00 | 0.00 | 93 | 1019.0 |
| 20260507072207 | 70 | 139 | 0.0 | 0.0 | 0.00 | 0.00 | 0.00 | 93 | 1019.0 |
| 20260507071705 | 70 | 150 | 0.0 | 0.0 | 0.00 | 0.00 | 0.00 | 93 | 1018.9 |
| 20260507071201 | 70 | 159 | 0.0 | 0.0 | 0.00 | 0.00 | 0.00 | 93 | 1019.0 |
| 20260507070659 | 70 | 137 | 0.0 | 0.0 | 0.00 | 0.00 | 0.00 | 93 | 1019.0 |
| 20260507070155 | 70 | 136 | 0.0 | 0.0 | 0.00 | 0.00 | 0.00 | 93 | 1019.1 |
| 20260507065651 | 71 | 136 | 0.0 | 0.0 | 0.00 | 0.00 | 0.00 | 93 | 1019.2 |
| 20260507065148 | 71 | 160 | 0.0 | 0.0 | 0.00 | 0.00 | 0.00 | 93 | 1019.3 |
| 20260507064646 | 71 | 181 | 0.0 | 0.0 | 0.00 | 0.00 | 0.00 | 93 | 1019.5 |
| 20260507064144 | 71 | 168 | 0.0 | 0.0 | 0.00 | 0.00 | 0.00 | 93 | 1019.3 |
| 20260507063642 | 71 | 151 | 0.0 | 0.0 | 0.00 | 0.00 | 0.00 | 93 | 1019.5 |
| 20260507063138 | 71 | 144 | 0.0 | 0.0 | 0.00 | 0.00 | 0.00 | 93 | 1019.6 |
| 20260507062635 | 71 | 139 | 0.0 | 0.0 | 0.00 | 0.00 | 0.00 | 93 | 1019.5 |
| 20260507062133 | 72 | 154 | 0.0 | 0.0 | 0.00 | 0.00 | 0.00 | 93 | 1019.5 |
| 20260507061630 | 72 | 171 | 0.0 | 0.0 | 0.00 | 0.00 | 0.00 | 93 | 1019.6 |
| 20260507061128 | 72 | 128 | 0.0 | 0.0 | 0.00 | 0.00 | 0.00 | 93 | 1019.6 |
| 20260507060626 | 72 | 126 | 0.0 | 0.0 | 0.00 | 0.00 | 0.00 | 93 | 1019.8 |
| 20260507060122 | 72 | 136 | 0.0 | 0.0 | 0.00 | 0.00 | 0.00 | 93 | 1020.1 |
| 20260507055618 | 72 | 153 | 0.0 | 0.0 | 0.00 | 0.00 | 0.00 | 92 | 1019.8 |
| 20260507055114 | 73 | 149 | 0.0 | 0.0 | 0.00 | 0.00 | 0.00 | 92 | 1020.0 |
| 20260507054610 | 73 | 171 | 0.0 | 0.0 | 0.00 | 0.00 | 0.00 | 92 | 1019.9 |
| 20260507054107 | 73 | 180 | 0.0 | 0.0 | 0.00 | 0.00 | 0.00 | 92 | 1020.1 |
| 20260507053605 | 73 | 159 | 0.0 | 0.0 | 0.00 | 0.00 | 0.00 | 92 | 1020.3 |
| 20260507053104 | 73 | 150 | 0.0 | 0.0 | 0.00 | 0.00 | 0.00 | 92 | 1020.4 |
| 20260507052601 | 73 | 143 | 0.0 | 0.0 | 0.00 | 0.00 | 0.00 | 92 | 1020.4 |
| 20260507052057 | 73 | 130 | 0.0 | 0.0 | 0.00 | 0.00 | 0.00 | 92 | 1020.4 |
| 20260507051555 | 73 | 110 | 0.0 | 0.0 | 0.00 | 0.00 | 0.00 | 92 | 1020.2 |
| 20260507051052 | 73 | 127 | 0.0 | 0.0 | 0.00 | 0.00 | 0.00 | 91 | 1020.5 |
| 20260507050549 | 74 | 127 | 0.0 | 0.0 | 0.00 | 0.00 | 0.00 | 91 | 1020.7 |
| 20260507050045 | 74 | 127 | 0.0 | 0.0 | 0.00 | 0.00 | 0.00 | 91 | 1020.8 |
| 20260507045541 | 74 | 133 | 0.0 | 0.0 | 0.00 | 0.00 | 0.00 | 91 | 1020.6 |
| 20260507045039 | 74 | 147 | 0.0 | 0.0 | 0.00 | 0.00 | 0.00 | 91 | 1020.7 |
| 20260507044535 | 74 | 180 | 0.0 | 0.0 | 0.00 | 0.00 | 0.00 | 90 | 1020.7 |
| 20260507044032 | 74 | 148 | 0.0 | 0.0 | 0.00 | 0.00 | 0.00 | 90 | 1020.5 |
| 20260507043528 | 74 | 191 | 0.0 | 0.0 | 0.00 | 0.00 | 0.00 | 90 | 1020.6 |
| 20260507043026 | 74 | 178 | 0.0 | 0.0 | 0.00 | 0.00 | 0.00 | 90 | 1020.8 |
| 20260507042521 | 74 | 198 | 0.0 | 0.0 | 0.00 | 0.00 | 0.00 | 91 | 1020.9 |
| 20260507042017 | 74 | 138 | 0.0 | 0.0 | 0.00 | 0.00 | 0.00 | 91 | 1020.9 |
| 20260507041514 | 75 | 123 | 0.0 | 0.0 | 0.00 | 0.00 | 0.00 | 91 | 1021.0 |
| 20260507041011 | 75 | 141 | 0.0 | 0.0 | 0.00 | 0.00 | 0.00 | 91 | 1020.9 |
| 20260507040507 | 75 | 133 | 0.0 | 0.0 | 0.00 | 0.00 | 0.00 | 91 | 1021.0 |
| 20260507040003 | 75 | 136 | 0.0 | 0.0 | 0.00 | 0.00 | 0.00 | 90 | 1020.9 |
| 20260507035500 | 75 | 122 | 0.0 | 0.0 | 0.00 | 0.00 | 0.00 | 90 | 1021.0 |
| 20260507034956 | 76 | 158 | 0.0 | 0.0 | 0.00 | 0.00 | 0.00 | 90 | 1021.3 |
| 20260507034453 | 76 | 122 | 0.0 | 0.0 | 0.00 | 0.00 | 0.00 | 90 | 1021.3 |
| 20260507033951 | 76 | 272 | 0.0 | 0.9 | 0.00 | 0.00 | 0.00 | 90 | 1021.3 |
| 20260507033449 | 76 | 290 | 0.0 | 0.0 | 0.00 | 0.00 | 0.00 | 90 | 1021.3 |
| 20260507032946 | 76 | 290 | 0.0 | 0.0 | 0.00 | 0.00 | 0.00 | 90 | 1021.2 |
| 20260507032443 | 76 | 252 | 0.0 | 0.0 | 0.00 | 0.00 | 0.00 | 91 | 1021.2 |
| 20260507031939 | 76 | 184 | 0.0 | 1.7 | 0.00 | 0.00 | 0.00 | 92 | 1021.1 |
| 20260507031435 | 76 | 206 | 0.0 | 0.0 | 0.00 | 0.00 | 0.00 | 92 | 1021.3 |
| 20260507030932 | 76 | 153 | 0.0 | 0.0 | 0.00 | 0.00 | 0.00 | 92 | 1021.3 |
| 20260507030429 | 76 | 109 | 0.0 | 0.0 | 0.00 | 0.00 | 0.00 | 92 | 1021.3 |
| 20260507025927 | 76 | 116 | 0.0 | 0.0 | 0.00 | 0.00 | 0.00 | 92 | 1021.3 |
| 20260507025424 | 76 | 136 | 0.0 | 0.0 | 0.00 | 0.00 | 0.00 | 91 | 1021.3 |
| 20260507024921 | 76 | 96 | 0.0 | 0.0 | 0.00 | 0.00 | 0.00 | 91 | 1021.2 |
| 20260507024419 | 76 | 97 | 0.0 | 0.0 | 0.00 | 0.00 | 0.00 | 91 | 1021.2 |
| 20260507023914 | 76 | 104 | 0.0 | 0.0 | 0.00 | 0.00 | 0.00 | 91 | 1021.3 |
| 20260507023411 | 77 | 106 | 0.0 | 0.0 | 0.00 | 0.00 | 0.00 | 91 | 1021.3 |
| 20260507022909 | 76 | 143 | 0.0 | 0.0 | 0.00 | 0.00 | 0.00 | 91 | 1021.2 |
| 20260507022405 | 76 | 97 | 0.0 | 0.0 | 0.00 | 0.00 | 0.00 | 91 | 1021.3 |
| 20260507021901 | 76 | 98 | 0.0 | 0.0 | 0.00 | 0.00 | 0.00 | 91 | 1021.2 |
| 20260507021356 | 76 | 105 | 0.0 | 0.0 | 0.00 | 0.00 | 0.00 | 91 | 1021.2 |
| 20260507020854 | 76 | 95 | 0.0 | 0.0 | 0.00 | 0.00 | 0.00 | 91 | 1020.9 |
| 20260507020351 | 77 | 117 | 0.0 | 0.0 | 0.00 | 0.00 | 0.00 | 91 | 1021.3 |
| 20260507015848 | 77 | 109 | 0.0 | 0.0 | 0.00 | 0.00 | 0.00 | 91 | 1021.1 |
| 20260507015346 | 77 | 108 | 0.0 | 0.0 | 0.00 | 0.00 | 0.00 | 91 | 1021.2 |
| 20260507014843 | 76 | 123 | 0.0 | 0.0 | 0.00 | 0.00 | 0.00 | 91 | 1021.0 |
| 20260507014339 | 76 | 209 | 0.0 | 0.0 | 0.00 | 0.00 | 0.00 | 91 | 1021.0 |
| 20260507013835 | 76 | 137 | 0.0 | 0.0 | 0.00 | 0.00 | 0.00 | 91 | 1020.8 |
| 20260507013332 | 77 | 102 | 0.0 | 0.0 | 0.00 | 0.00 | 0.00 | 90 | 1020.7 |
| 20260507012830 | 77 | 106 | 0.0 | 0.0 | 0.00 | 0.00 | 0.00 | 90 | 1020.8 |
| 20260507012326 | 77 | 93 | 0.0 | 0.0 | 0.00 | 0.00 | 0.00 | 90 | 1020.6 |
| 20260507011823 | 77 | 96 | 0.0 | 0.0 | 0.00 | 0.00 | 0.00 | 90 | 1020.8 |
| 20260507011320 | 77 | 115 | 0.0 | 0.0 | 0.00 | 0.00 | 0.00 | 90 | 1020.6 |
| 20260507010820 | 77 | 66 | 0.0 | 0.0 | 0.00 | 0.00 | 0.00 | 89 | 1020.8 |
| 20260507010315 | 77 | 118 | 0.0 | 0.0 | 0.00 | 0.00 | 0.00 | 89 | 1020.8 |
| 20260507005813 | 77 | 124 | 0.0 | 0.0 | 0.00 | 0.00 | 0.00 | 89 | 1020.6 |
| 20260507005310 | 78 | 101 | 0.0 | 0.0 | 0.00 | 0.00 | 0.00 | 88 | 1020.8 |
| 20260507004806 | 78 | 119 | 0.0 | 0.0 | 0.00 | 0.00 | 0.00 | 88 | 1020.6 |
| 20260507004304 | 78 | 139 | 0.0 | 0.0 | 0.00 | 0.00 | 0.00 | 88 | 1020.6 |
| 20260507003800 | 78 | 170 | 0.0 | 0.0 | 0.00 | 0.00 | 0.00 | 88 | 1020.7 |
| 20260507003255 | 78 | 125 | 0.0 | 0.0 | 0.00 | 0.00 | 0.00 | 88 | 1020.5 |
| 20260507002751 | 78 | 147 | 0.0 | 0.0 | 0.00 | 0.00 | 0.00 | 87 | 1020.6 |
| 20260507002247 | 78 | 140 | 0.0 | 0.0 | 0.00 | 0.00 | 0.00 | 87 | 1020.4 |
| 20260507001745 | 78 | 147 | 0.0 | 0.0 | 0.00 | 0.00 | 0.00 | 87 | 1020.4 |
| 20260507001242 | 78 | 150 | 0.0 | 0.0 | 0.00 | 0.00 | 0.00 | 86 | 1020.4 |
| 20260507000738 | 78 | 140 | 0.0 | 0.0 | 0.00 | 0.00 | 0.00 | 86 | 1020.3 |
| 20260507000234 | 79 | 229 | 0.0 | 0.0 | 0.00 | 0.00 | 0.00 | 86 | 1020.3 |
| 20260506235731 | 78 | 179 | 0.0 | 0.0 | 0.00 | 0.00 | 0.00 | 86 | 1020.1 |
| 20260506235226 | 79 | 131 | 0.0 | 0.0 | 0.00 | 0.00 | 0.00 | 86 | 1020.2 |
| 20260506234723 | 79 | 342 | 0.0 | 0.0 | 0.00 | 0.00 | 0.00 | 85 | 1020.0 |
| 20260506234221 | 79 | 252 | 0.0 | 0.0 | 0.00 | 0.00 | 0.00 | 85 | 1020.0 |
| 20260506233718 | 79 | 252 | 0.0 | 0.0 | 0.00 | 0.00 | 0.00 | 85 | 1019.9 |
| 20260506233214 | 79 | 252 | 0.0 | 0.0 | 0.00 | 0.00 | 0.00 | 85 | 1020.0 |
| 20260506232711 | 79 | 252 | 0.0 | 0.0 | 0.00 | 0.00 | 0.00 | 84 | 1020.0 |
| 20260506232206 | 79 | 324 | 0.0 | 0.0 | 0.00 | 0.00 | 0.00 | 84 | 1020.1 |
| 20260506231703 | 79 | 278 | 0.0 | 0.0 | 0.00 | 0.00 | 0.00 | 84 | 1020.3 |
| 20260506231202 | 79 | 281 | 0.0 | 0.0 | 0.00 | 0.00 | 0.00 | 84 | 1019.8 |
| 20260506230658 | 79 | 281 | 0.0 | 0.0 | 0.00 | 0.00 | 0.00 | 84 | 1019.8 |
| 20260506230155 | 79 | 281 | 0.0 | 0.0 | 0.00 | 0.00 | 0.00 | 84 | 1019.9 |
| 20260506225652 | 79 | 0 | 0.0 | 0.9 | 0.00 | 0.00 | 0.00 | 84 | 1019.6 |
| 20260506225149 | 79 | 62 | 0.0 | 0.0 | 0.00 | 0.00 | 0.00 | 84 | 1019.7 |
| 20260506224645 | 80 | 213 | 0.0 | 0.9 | 0.00 | 0.00 | 0.00 | 83 | 1019.7 |
| 20260506224142 | 80 | 325 | 0.0 | 0.0 | 0.00 | 0.00 | 0.00 | 83 | 1019.5 |
| 20260506223638 | 80 | 198 | 0.0 | 0.0 | 0.00 | 0.00 | 0.00 | 83 | 1019.4 |
| 20260506223134 | 80 | 286 | 0.0 | 0.0 | 0.00 | 0.00 | 0.00 | 83 | 1019.4 |
| 20260506222631 | 80 | 83 | 0.0 | 0.0 | 0.00 | 0.00 | 0.00 | 83 | 1019.4 |
| 20260506222127 | 80 | 4 | 0.0 | 0.9 | 0.00 | 0.00 | 0.00 | 83 | 1019.4 |
| 20260506221625 | 80 | 264 | 0.0 | 0.9 | 0.00 | 0.00 | 0.00 | 83 | 1019.3 |
| 20260506221123 | 80 | 303 | 0.0 | 1.7 | 0.00 | 0.00 | 0.00 | 83 | 1019.2 |
| 20260506220619 | 80 | 305 | 0.0 | 1.7 | 0.00 | 0.00 | 0.00 | 82 | 1019.2 |
| 20260506220115 | 80 | 276 | 0.0 | 0.0 | 0.00 | 0.00 | 0.00 | 82 | 1019.1 |
| 20260506215612 | 80 | 31 | 2.6 | 2.6 | 0.00 | 0.00 | 0.00 | 82 | 1019.0 |
| 20260506215107 | 80 | 24 | 1.7 | 2.6 | 0.00 | 0.00 | 0.00 | 81 | 1019.0 |
| 20260506214604 | 80 | 15 | 0.9 | 1.7 | 0.00 | 0.00 | 0.00 | 81 | 1019.1 |
| 20260506214101 | 80 | 18 | 0.0 | 0.9 | 0.00 | 0.00 | 0.00 | 81 | 1019.0 |
| 20260506213600 | 80 | 0 | 0.9 | 0.9 | 0.00 | 0.00 | 0.00 | 81 | 1019.1 |
| 20260506213056 | 80 | 353 | 0.9 | 0.9 | 0.00 | 0.00 | 0.00 | 81 | 1018.9 |
| 20260506212553 | 80 | 310 | 0.0 | 2.6 | 0.00 | 0.00 | 0.00 | 81 | 1019.0 |
| 20260506212048 | 80 | 27 | 0.9 | 0.9 | 0.00 | 0.00 | 0.00 | 81 | 1018.8 |
| 20260506211544 | 80 | 29 | 2.6 | 5.2 | 0.00 | 0.00 | 0.00 | 80 | 1018.9 |
| 20260506211042 | 80 | 353 | 0.0 | 0.9 | 0.00 | 0.00 | 0.00 | 80 | 1018.8 |
| 20260506210538 | 80 | 340 | 0.0 | 1.7 | 0.00 | 0.00 | 0.00 | 80 | 1018.7 |